Location: Asheville, NC
(35.6000°N, 82.5500°W)
Time: 04:54:51

Vanguard 1 Rocket - Pass Details

Date: 10 December 2017
Orbit: 655 x 4222 km, 34.3° (Epoch: 20 March)

Event Time Altitude Azimuth Distance (km) Brightness Sun altitude
Rises 00:33:21 0° 287° (WNW) 7,344 12.0 -77.1°
Reaches altitude 10° 00:37:58 10° 283° (WNW) 6,666 11.7 -76.9°
Enters shadow 00:39:25 13° 281° (WNW) 6,468 11.6 -76.8°
Exits shadow 01:22:12 12° 149° (SSE) 6,449 11.6 -72.0°
Drops below altitude 10° 01:23:01 10° 148° (SSE) 6,559 11.6 -71.8°
Sets 01:27:37 0° 143° (SE) 7,216 12.0 -71.1°
